Hornbeck, LA

3:13 AM CDT on August 28, 2016 (GMT -0500)
Fort Polk

Weather History for KAQV - November, 2012

Change the Weather History Date:

Wednesday, November 28, 2012

  Actual Average (KPOE) Record (KPOE)
Temperature  
Mean Temperature 49 °F -  
Max Temperature 63 °F 63 °F 80 °F (2008)
Min Temperature 34 °F 44 °F 28 °F (2013)
Degree Days  
Heating Degree Days 16    
Moisture  
Dew Point 35 °F    
Average Humidity 73    
Maximum Humidity 96    
Minimum Humidity 30    
Precipitation  
Precipitation 0.00 in - - ()
Sea Level Pressure  
Sea Level Pressure 30.37 in    
Wind  
Wind Speed 2 mph (NE)    
Max Wind Speed 7 mph    
Max Gust Speed -    
Visibility 10 miles    
Events      
Averages and records for this station are not official NWS values.
T = Trace of Precipitation, MM = Missing Value Source: NWS Daily Summary

Daily Weather History Graph

Daily Weather History Graph

Search for Another Location

Airport or City:

Trip Planner

Search our weather history database for the weather conditions in past years. The results will help you decide how hot, cold, wet, or windy it might be!

Date:

Astronomy

Nov. 28, 2012 Rise Set
Actual Time 6:52 AM CST 5:10 PM CST
Civil Twilight 6:26 AM CST 5:36 PM CST
Nautical Twilight 5:56 AM CST 6:06 PM CST
Astronomical Twilight 5:26 AM CST 6:35 PM CST
Moon 5:25 PM CST 6:50 AM CST
Length of Visible Light 11h 10m
Length of Day
10h 17m
Full, 100% of the Moon is Illuminated
Nov 28
Full
Dec 6
Last Quarter
Dec 13
New
Dec 19
First Quarter
Dec 28
Full

Hourly Weather History & Observations

Time (CST) Temp. Windchill Dew Point Humidity Pressure Visibility Wind Dir Wind Speed Gust Speed Precip Events Conditions
12:56 AM 39.9 °F - 36.0 °F 86% 30.34 in 10.0 mi Calm Calm - N/A   Clear
1:56 AM 37.0 °F - 35.1 °F 93% 30.34 in 10.0 mi Calm Calm - N/A   Clear
2:56 AM 37.9 °F 35.5 °F 35.1 °F 89% 30.35 in 10.0 mi Variable 3.5 mph - N/A   Clear
3:56 AM 35.1 °F - 34.0 °F 96% 30.37 in 9.0 mi Calm Calm - N/A   Clear
4:56 AM 37.0 °F 34.5 °F 34.0 °F 89% 30.37 in 10.0 mi NNE 3.5 mph - N/A   Clear
5:56 AM 36.0 °F 33.3 °F 33.1 °F 89% 30.39 in 10.0 mi NE 3.5 mph - N/A   Clear
6:56 AM 36.0 °F - 33.1 °F 89% 30.41 in 9.0 mi Calm Calm - N/A   Clear
7:56 AM 39.0 °F 36.8 °F 35.1 °F 86% 30.44 in 10.0 mi Variable 3.5 mph - N/A   Clear
8:56 AM 43.0 °F 40.3 °F 37.0 °F 80% 30.46 in 10.0 mi East 4.6 mph - N/A   Clear
9:56 AM 48.0 °F - 37.9 °F 68% 30.46 in 10.0 mi Variable 4.6 mph - N/A   Clear
10:56 AM 54.0 °F - 37.0 °F 53% 30.46 in 10.0 mi Variable 5.8 mph - N/A   Clear
11:56 AM 57.0 °F - 34.0 °F 42% 30.43 in 10.0 mi Variable 4.6 mph - N/A   Clear
12:56 PM 60.1 °F - 32.0 °F 35% 30.38 in 10.0 mi NE 4.6 mph - N/A   Clear
1:56 PM 62.1 °F - 32.0 °F 32% 30.35 in 10.0 mi Variable 6.9 mph - N/A   Clear
2:56 PM 63.0 °F - 30.9 °F 30% 30.34 in 10.0 mi Calm Calm - N/A   Clear
3:56 PM 62.1 °F - 30.9 °F 31% 30.33 in 10.0 mi East 3.5 mph - N/A   Clear
4:56 PM 54.0 °F - 36.0 °F 51% 30.32 in 10.0 mi Calm Calm - N/A   Clear
5:56 PM 46.0 °F - 37.0 °F 71% 30.33 in 10.0 mi Calm Calm - N/A   Clear
6:56 PM 42.1 °F - 37.0 °F 82% 30.35 in 10.0 mi Calm Calm - N/A   Clear
7:56 PM 39.9 °F - 37.0 °F 89% 30.36 in 10.0 mi Calm Calm - N/A   Clear
8:56 PM 37.9 °F - 36.0 °F 93% 30.36 in 10.0 mi Calm Calm - N/A   Clear
9:56 PM 37.0 °F - 35.1 °F 93% 30.35 in 10.0 mi Calm Calm - N/A   Clear
10:56 PM 35.1 °F - 33.1 °F 92% 30.35 in 10.0 mi Calm Calm - N/A   Clear
11:56 PM 34.0 °F - 33.1 °F 96% 30.33 in 10.0 mi Calm Calm - N/A   Clear